Regional Weather Roundup
Issued by NWS

Home | Current Version | Previous Version | Graphics & Text | Print | Product List | Glossary On
Versions: 1 2 3 4 5 6 7 8 9 10 11 12 13 14 15 16 17 18 19 20 21 22 23 24 25 26 27 28 29 30 31 32 33 34 35 36 37 38 39 40 41 42 43 44 45 46 47 48 49 50
000
ASUS43 KLOT 301312
RWRIL

ILLINOIS REGIONAL WEATHER ROUNDUP
NATIONAL WEATHER SERVICE CHICAGO/ROMEOVILLE IL
800 AM CDT THU JUL 30 2015

NOTE: "FAIR" INDICATES FEW OR NO CLOUDS BELOW 12,000 FEET WITH NO
SIGNIFICANT WEATHER AND/OR OBSTRUCTIONS TO VISIBILITY.

* THESE STATIONS ARE NOT UNDER NWS QUALITY CONTROL. THEY ALSO MAY NOT
  REPORT WEATHER SUCH AS PRECIPITATION OR FOG.

ILZ001-002-007-009-015-016-024-301400-
NORTHWEST ILLINOIS

CITY           SKY/WX    TMP DP  RH WIND       PRES   REMARKS
MOLINE         SUNNY     71  62  73 W7        30.10S
STERLING*      SUNNY     70  63  78 W9        30.07S
SAVANNA*       SUNNY     69  60  70 NW9       30.09S
$$

ILZ003-004-008-010-011-017-018-301400-
NORTH CENTRAL ILLINOIS

CITY           SKY/WX    TMP DP  RH WIND       PRES   REMARKS
ROCKFORD       SUNNY     71  58  63 NW9       30.08S
FREEPORT*      SUNNY     66  60  78 W7        30.10S
ROCHELLE*      SUNNY     67  61  83 W5        30.09S
DE KALB*       SUNNY     69  59  71 W9G17     30.08S
PERU*          SUNNY     69  60  75 W8        30.10S
$$

ILZ005-006-012>014-019>023-301400-
NORTHEAST ILLINOIS

CITY           SKY/WX    TMP DP  RH WIND       PRES   REMARKS
CHICAGO-OHARE  SUNNY     71  59  65 W8        30.05S
CHICAGO-MIDWAY SUNNY     74  58  57 W12       30.05S
AURORA         SUNNY     68  61  78 W6        30.08R
LANSING*       SUNNY     72  57  59 W6        30.07S
JOLIET*        SUNNY     71  62  74 W3        30.08S
WAUKEGAN       SUNNY     71  58  63 VRB6      30.03R
DUPAGE AIRPORT SUNNY     70  59  68 W3        30.06S
KANKAKEE*      SUNNY     68  63  82 W7        30.09S
WHEELING       SUNNY     72  57  59 W6        30.06R
MORRIS*        SUNNY     69  62  81 W8        30.07S
ROMEOVILLE*    SUNNY     69  60  73 W7        30.07F
NORTHERLY ISL    N/A     73  57  57 W13         N/A
$$

LMZ740>746-301400-
SOUTHERN LAKE MICHIGAN

STATION/POSITION SKY/WX   TEMP    WIND        PRES    VSBY  WAVE
                          AIR SEA DIR/SP/G                  HT/PER
                          (F)     (DEG/KT/KT) (MB)    (MI)  (FT/S)
HARRISON CRIB              70     270/ 15/ 21   N/A
BURNHAM HARBOR             73     270/  7/ 12   N/A
CALUMET HARBOR             69                   N/A
BURNS HARBOR               72     270/ 14/ 17 1017.6R
MICHIGAN CITY              72     250/ 17/ 19   N/A
MICHIGAN CITY 6N           72 72  290/ 12/ 16   N/A           4/ 4
ST. JOSEPH                 72 73  320/ 14/ 16   N/A           4/ 5
$$

ILZ025>027-034>036-040-047-049-050-058-095>099-301400-
WEST-CENTRAL ILLINOIS

CITY           SKY/WX    TMP DP  RH WIND       PRES   REMARKS
QUINCY         SUNNY     71  63  75 NW5       30.15S
GALESBURG*     SUNNY     68  61  77 W8        30.12S
MACOMB*        SUNNY     69  63  81 W6        30.16S
JACKSONVILLE*  SUNNY     73  64  75 CALM      30.14S
PITTSFIELD*    SUNNY     72  62  72 W3        30.16S
$$

ILZ028>032-037-038-041>044-048-051>054-059>061-301400-
CENTRAL ILLINOIS

CITY           SKY/WX    TMP DP  RH WIND       PRES   REMARKS
PONTIAC        SUNNY     69  64  84 W8        30.11S
BLOOMINGTON    SUNNY     74  61  63 NW12      30.13R
DECATUR        SUNNY     74  60  61 NW9       30.13R
PEORIA         SUNNY     74  59  59 NW7       30.12S
LACON*         SUNNY     71  60  69 W5        30.09S
LINCOLN*       SUNNY     72  61  69 NW5       30.13S
SPRINGFIELD    SUNNY     71  63  75 W6        30.13S
TAYLORVILLE    SUNNY     68  63  83 NW3       30.13S
$$

ILZ033-039-045-046-055>057-062-063-301400-
EAST-CENTRAL ILLINOIS

CITY           SKY/WX    TMP DP  RH WIND       PRES   REMARKS
CHAMPAIGN      SUNNY     68  63  84 W6        30.12R
DANVILLE*      SUNNY     69  62  78 NW7       30.08R
RANTOUL*       SUNNY     72  64  74 NW10      30.11R
MATTOON        SUNNY     70  59  68 NW9       30.12R
PARIS*         SUNNY     69  64  83 NW5       30.12R
$$

ILZ079-100>102-301400-
SOUTHWEST ILLINOIS

CITY           SKY/WX    TMP DP  RH WIND       PRES   REMARKS
ALTON          SUNNY     70  61  73 NW6       30.15S
BELLEVILLE     SUNNY     73  64  72 VRB3      30.13S
CAHOKIA*       SUNNY     74  63  68 CALM      30.14S
SPARTA*        SUNNY     71  62  73 N3        30.15S
$$

ILZ064>066-069>071-074>076-080>082-084>086-088>090-092>094-301400-
SOUTH-CENTRAL ILLINOIS

CITY           SKY/WX    TMP DP  RH WIND       PRES   REMARKS
CARBONDALE     SUNNY     72  64  76 N5        30.14R
CAIRO*         SUNNY     73  65  77 N6        30.13R
EFFINGHAM*     SUNNY     71  59  65 NW7       30.14S
MARION         SUNNY     73  64  73 NW7       30.14R
MT. VERNON     SUNNY     73  57  56 N6        30.14R
CENTRALIA*     SUNNY     72  60  65 N5        30.13S
SALEM*         SUNNY     73  62  69 N3        30.14R
METROPOLIS*    SUNNY     73  67  82 N3        30.13R
$$

ILZ067-068-072-073-078-083-087-091-301400-
SOUTHEAST ILLINOIS

CITY           SKY/WX    TMP DP  RH WIND       PRES   REMARKS
LAWRENCEVILLE  SUNNY     71  63  75 NW6       30.12R
FLORA*         SUNNY     71  61  70 N6        30.13R
FAIRFIELD*     SUNNY     72  63  73 N6        30.12R
HARRISBURG*    SUNNY     71  63  75 N5        30.14R
ROBINSON*      SUNNY     70  63  77 NW6       30.12S
CARMI*         SUNNY     71  60  68 CALM      30.12R
$$

ABBREVIATIONS USED IN REMARKS
   TC - TEMPERATURE IN CELSIUS
  WCI - WIND CHILL INDEX
   HX - HEAT INDEX
  VSB - VISIBILITY
$$



USA.gov is the U.S. government's official web portal to all federal, state and local government web resources and services.